TimeCDT,TemperatureF,Dew PointF,Humidity,Sea Level PressureIn,VisibilityMPH,Wind Direction,Wind SpeedMPH,Gust SpeedMPH,PrecipitationIn,Events,Conditions,WindDirDegrees,DateUTC
12:10 AM,59.0,59.0,100,29.94,10.0,NE,8.1,-,N/A,,Clear,40,2013-07-23 05:10:00
12:30 AM,57.2,57.2,100,29.95,10.0,NE,6.9,-,N/A,,Clear,40,2013-07-23 05:30:00
12:50 AM,57.2,57.2,100,29.95,10.0,NE,5.8,-,N/A,,Clear,40,2013-07-23 05:50:00
1:10 AM,57.2,57.2,100,29.94,10.0,NE,8.1,-,N/A,,Clear,50,2013-07-23 06:10:00
1:30 AM,57.2,57.2,100,29.98,10.0,NNW,3.5,-,N/A,,Scattered Clouds,340,2013-07-23 06:30:00
1:50 AM,57.2,57.2,100,29.99,10.0,Calm,Calm,-,N/A,,Partly Cloudy,0,2013-07-23 06:50:00
2:10 AM,57.2,57.2,100,30.01,10.0,WNW,5.8,-,N/A,,Scattered Clouds,300,2013-07-23 07:10:00
2:30 AM,57.2,57.2,100,29.99,10.0,NNE,5.8,-,N/A,,Partly Cloudy,30,2013-07-23 07:30:00
2:50 AM,59.0,59.0,100,29.94,10.0,ENE,18.4,24.2,N/A,Rain,Light Rain,60,2013-07-23 07:50:00
3:10 AM,59.0,59.0,100,29.92,10.0,ENE,16.1,24.2,N/A,,Partly Cloudy,60,2013-07-23 08:10:00
3:30 AM,57.2,57.2,100,29.94,10.0,NE,12.7,19.6,N/A,,Clear,40,2013-07-23 08:30:00
3:50 AM,57.2,57.2,100,29.98,10.0,WNW,3.5,-,N/A,,Clear,300,2013-07-23 08:50:00
4:10 AM,57.2,57.2,100,30.00,10.0,NW,3.5,-,N/A,,Clear,310,2013-07-23 09:10:00
4:30 AM,55.4,55.4,100,30.01,10.0,WNW,5.8,-,N/A,,Clear,300,2013-07-23 09:30:00
4:50 AM,55.4,55.4,100,30.01,10.0,NNW,5.8,-,N/A,,Clear,330,2013-07-23 09:50:00
5:10 AM,53.6,53.6,100,30.00,10.0,North,5.8,-,N/A,,Clear,10,2013-07-23 10:10:00
5:30 AM,53.6,53.6,100,30.01,10.0,North,6.9,-,N/A,,Clear,360,2013-07-23 10:30:00
5:50 AM,53.6,53.6,100,30.00,10.0,North,6.9,-,N/A,,Clear,10,2013-07-23 10:50:00
6:10 AM,55.4,55.4,100,30.00,10.0,NE,4.6,-,N/A,,Clear,50,2013-07-23 11:10:00
6:30 AM,55.4,55.4,100,30.01,10.0,NE,4.6,-,N/A,,Partly Cloudy,40,2013-07-23 11:30:00
6:50 AM,55.4,55.4,100,30.01,10.0,ENE,3.5,-,N/A,,Mostly Cloudy,60,2013-07-23 11:50:00
7:10 AM,57.2,57.2,100,30.01,10.0,ENE,5.8,-,N/A,,Scattered Clouds,70,2013-07-23 12:10:00
7:30 AM,57.2,57.2,100,30.00,10.0,ENE,6.9,-,N/A,,Partly Cloudy,70,2013-07-23 12:30:00
7:50 AM,57.2,57.2,100,30.02,10.0,NNE,4.6,-,N/A,Rain,Light Rain,20,2013-07-23 12:50:00
8:10 AM,57.2,57.2,100,30.02,10.0,ENE,8.1,-,N/A,Rain,Light Rain,60,2013-07-23 13:10:00
8:30 AM,59.0,59.0,100,30.03,10.0,NE,8.1,-,N/A,,Clear,50,2013-07-23 13:30:00
8:50 AM,59.0,59.0,100,30.04,10.0,ENE,8.1,-,N/A,,Scattered Clouds,70,2013-07-23 13:50:00
9:10 AM,60.8,60.8,100,30.03,10.0,East,9.2,-,N/A,,Scattered Clouds,80,2013-07-23 14:10:00
9:30 AM,62.6,62.6,100,30.05,10.0,NE,9.2,-,N/A,,Clear,50,2013-07-23 14:30:00
9:50 AM,62.6,60.8,94,30.05,10.0,ENE,10.4,-,N/A,,Partly Cloudy,60,2013-07-23 14:50:00
10:10 AM,64.4,60.8,88,30.04,10.0,NE,8.1,-,N/A,,Partly Cloudy,40,2013-07-23 15:10:00
10:30 AM,64.4,59.0,83,30.04,10.0,East,5.8,-,N/A,,Partly Cloudy,80,2013-07-23 15:30:00
10:50 AM,66.2,59.0,78,30.05,10.0,East,8.1,-,N/A,,Partly Cloudy,80,2013-07-23 15:50:00
11:10 AM,66.2,59.0,78,30.06,10.0,NE,4.6,-,N/A,,Clear,50,2013-07-23 16:10:00
11:30 AM,66.2,59.0,78,30.05,10.0,NNE,6.9,-,N/A,,Clear,20,2013-07-23 16:30:00
11:50 AM,66.2,57.2,73,30.05,10.0,NE,6.9,-,N/A,,Clear,50,2013-07-23 16:50:00
12:10 PM,68.0,55.4,64,30.05,10.0,NE,6.9,-,N/A,,Clear,50,2013-07-23 17:10:00
12:30 PM,68.0,57.2,68,30.05,10.0,East,6.9,-,N/A,,Partly Cloudy,80,2013-07-23 17:30:00
12:50 PM,68.0,57.2,68,30.05,10.0,East,3.5,-,N/A,,Scattered Clouds,90,2013-07-23 17:50:00
1:10 PM,68.0,57.2,68,30.05,10.0,North,5.8,-,N/A,,Partly Cloudy,360,2013-07-23 18:10:00
1:30 PM,68.0,57.2,68,30.04,10.0,Calm,Calm,-,N/A,,Partly Cloudy,0,2013-07-23 18:30:00
1:50 PM,68.0,57.2,68,30.05,10.0,North,6.9,-,N/A,,Partly Cloudy,10,2013-07-23 18:50:00
2:10 PM,68.0,57.2,68,30.05,10.0,North,3.5,-,N/A,,Mostly Cloudy,360,2013-07-23 19:10:00
2:30 PM,69.8,57.2,64,30.05,10.0,North,6.9,-,N/A,,Mostly Cloudy,350,2013-07-23 19:30:00
2:50 PM,71.6,57.2,60,30.04,10.0,NNE,8.1,-,N/A,,Mostly Cloudy,20,2013-07-23 19:50:00
3:10 PM,71.6,57.2,60,30.04,10.0,NE,11.5,-,N/A,,Scattered Clouds,40,2013-07-23 20:10:00
3:30 PM,71.6,57.2,60,30.03,10.0,ENE,8.1,-,N/A,,Partly Cloudy,60,2013-07-23 20:30:00
3:50 PM,69.8,55.4,60,30.03,10.0,NNE,4.6,-,N/A,,Clear,30,2013-07-23 20:50:00
4:10 PM,71.6,57.2,60,30.04,10.0,NNE,8.1,-,N/A,,Clear,30,2013-07-23 21:10:00
4:30 PM,71.6,57.2,60,30.04,10.0,North,5.8,-,N/A,,Clear,10,2013-07-23 21:30:00
4:50 PM,69.8,57.2,64,30.05,10.0,North,6.9,-,N/A,,Scattered Clouds,360,2013-07-23 21:50:00
5:10 PM,71.6,57.2,60,30.04,10.0,NE,6.9,-,N/A,,Mostly Cloudy,40,2013-07-23 22:10:00
5:30 PM,71.6,57.2,60,30.04,10.0,North,8.1,-,N/A,,Scattered Clouds,10,2013-07-23 22:30:00
5:50 PM,71.6,57.2,60,30.04,10.0,NNE,6.9,-,N/A,,Clear,30,2013-07-23 22:50:00
6:10 PM,69.8,55.4,60,30.03,10.0,NE,5.8,-,N/A,,Clear,50,2013-07-23 23:10:00
6:30 PM,68.0,57.2,68,30.03,10.0,NE,4.6,-,N/A,,Clear,40,2013-07-23 23:30:00
6:50 PM,69.8,57.2,64,30.03,10.0,NE,3.5,-,N/A,,Clear,50,2013-07-23 23:50:00
7:10 PM,68.0,59.0,73,30.03,10.0,NE,3.5,-,N/A,,Clear,50,2013-07-24 00:10:00
7:30 PM,66.2,60.8,83,30.04,10.0,Calm,Calm,-,N/A,,Clear,0,2013-07-24 00:30:00
7:50 PM,66.2,64.4,94,30.04,10.0,Calm,Calm,-,N/A,,Clear,0,2013-07-24 00:50:00
8:10 PM,66.2,64.4,94,30.04,10.0,Calm,Calm,-,N/A,,Clear,0,2013-07-24 01:10:00
8:30 PM,66.2,64.4,94,30.04,10.0,Calm,Calm,-,N/A,,Clear,0,2013-07-24 01:30:00
8:50 PM,64.4,64.4,100,30.05,10.0,NNE,3.5,-,N/A,,Clear,30,2013-07-24 01:50:00
9:10 PM,62.6,62.6,100,30.05,10.0,ENE,3.5,-,N/A,,Clear,60,2013-07-24 02:10:00
9:30 PM,59.0,59.0,100,30.06,10.0,NE,6.9,-,N/A,,Clear,40,2013-07-24 02:30:00
9:50 PM,60.8,60.8,100,30.06,10.0,ENE,5.8,-,N/A,,Clear,60,2013-07-24 02:50:00
10:10 PM,59.0,59.0,100,30.07,10.0,ENE,4.6,-,N/A,,Clear,60,2013-07-24 03:10:00
10:30 PM,59.0,59.0,100,30.07,10.0,ENE,3.5,-,N/A,,Clear,70,2013-07-24 03:30:00
10:50 PM,59.0,59.0,100,30.07,10.0,East,3.5,-,N/A,,Scattered Clouds,90,2013-07-24 03:50:00
11:10 PM,59.0,59.0,100,30.07,10.0,Calm,Calm,-,N/A,,Mostly Cloudy,0,2013-07-24 04:10:00
11:30 PM,57.2,57.2,100,30.07,10.0,Calm,Calm,-,N/A,,Mostly Cloudy,0,2013-07-24 04:30:00
11:50 PM,59.0,59.0,100,30.07,10.0,Calm,Calm,-,N/A,,Scattered Clouds,0,2013-07-24 04:50:00